Regional Weather Roundup
Issued by NWS

Home | Current Version | Previous Version | Graphics & Text | Print | Product List | Glossary On
Versions: 1 2 3 4 5 6 7 8 9 10 11 12 13 14 15 16 17 18 19 20 21 22 23 24 25 26 27 28 29 30 31 32 33 34 35 36 37 38 39 40 41 42 43 44 45 46 47 48 49 50
000
ASUS43 KIND 201409
RWRIN

WEATHER ROUNDUP FOR INDIANA
NATIONAL WEATHER SERVICE INDIANAPOLIS IN
1000 AM EDT SAT SEP 20 2014

NOTE: "FAIR" INDICATES FEW OR NO CLOUDS BELOW 12,000 FEET WITH NO
SIGNIFICANT WEATHER AND/OR OBSTRUCTIONS TO VISIBILITY.

* - STATION DOES NOT REPORT WEATHER SUCH AS PRECIPITATION OR FOG.

+ - STATION NOT QUALITY CONTROLLED BY THE NATIONAL WEATHER SERVICE.
    USE DATA WITH CAUTION...ESPECIALLY DEWPOINT AND RELATIVE
    HUMIDITY OBSERVATIONS.

INZ001>003-010>013-019-020-201500-
NORTHWEST INDIANA

CITY           SKY/WX    TMP DP  RH WIND       PRES   REMARKS
GARY /AIRPORT/   N/A     66  57  72 S13       29.93F
KNOX *+        PTSUNNY   64  55  71 SW10      29.96S
LA PORTE +     PTSUNNY   62  56  80 SW12      29.95F
MICHIGAN CITY+ PTSUNNY   63  54  72 SW12      29.93F
MONTICELLO +   PTSUNNY   64  58  81 SW9       30.00F
RENSSELAER +   PTSUNNY   64  61  88 S9        29.98F
VALPARAISO     CLOUDY    63  56  78 SW10      29.95F

$$

LMZ046-743>745-201500-
SOUTHERN LAKE MICHIGAN

STATION/POSITION TIME  TEMP WIND        PRES
                       AIR  DIR/SP/G
                 (UTC) (F)  (DEG/KT/KT) (MB)
MICHIGAN CITY    1400   65  180/ 16/ 22   N/A

$$

INZ004-005-014>016-021>024-201500-
NORTH CENTRAL INDIANA

CITY           SKY/WX    TMP DP  RH WIND       PRES   REMARKS
GOSHEN         PTSUNNY   65  56  72 SW15      29.97F
LOGANSPORT +   MOSUNNY   64  55  72 SW9       30.02S
PERU/GRISSOM   CLOUDY    66  62  89 SW12      30.02S
ROCHESTER +    PTSUNNY   68  57  68 SW12      30.00F
SOUTH BEND     MOSUNNY   66  55  67 SW17G25   29.95F
WARSAW +       PTSUNNY   63  55  77 SW6       29.99F

$$

INZ006>009-017-018-025>027-201500-
NORTHEAST INDIANA

CITY           SKY/WX    TMP DP  RH WIND       PRES   REMARKS
ANGOLA *+      MOSUNNY   63  55  77 SW9       29.98F
AUBURN +       CLOUDY    63  54  72 SW7       30.02R
FORT WAYNE     PTSUNNY   64  57  78 SW10      30.03R
HUNTINGTON +   MOSUNNY   65  58  79 SW6       30.02S

$$

INZ028-029-035-036-043>045-051>053-201500-
WEST CENTRAL INDIANA

CITY           SKY/WX    TMP DP  RH WIND       PRES   REMARKS
GREENCASTLE +  SUNNY     64  59  82 S5        30.06S
LAFAYETTE      MOSUNNY   65  58  78 SW5       30.02S
TERRE HAUTE    SUNNY     66  60  81 S6        30.05F

$$

INZ030>032-037>040-046>048-054>057-064-065-201500-
CENTRAL INDIANA

CITY           SKY/WX    TMP DP  RH WIND       PRES   REMARKS
CP ATTERBURY + SUNNY     64  59  82 CALM      30.08S
FRANKFORT +    MOSUNNY   67  60  78 SW9       30.04S
INDIANAPOLIS   PTSUNNY   64  58  80 S9        30.05S
-EAGLE CREEK   SUNNY     65  57  75 S8        30.05S
KOKOMO *+      PTSUNNY   66  57  72 SW10      30.04S
MARION +       SUNNY     65  56  73 SW9       30.04S
MT COMFORT *+  SUNNY     64  57  77 SW8       30.06F
SHELBYVILLE    SUNNY     66  59  78 S8        30.07S
ZIONSVILLE +   SUNNY     66  58  74 SW10      30.05F

$$

INZ033-034-041-042-049-050-058-059-201500-
EAST CENTRAL INDIANA

CITY           SKY/WX    TMP DP  RH WIND       PRES   REMARKS
MUNCIE         SUNNY     68  55  63 SW8       30.05S

$$

INZ060-061-067>069-081>083-085>088-201500-
SOUTHWEST INDIANA

CITY           SKY/WX    TMP DP  RH WIND       PRES   REMARKS
EVANSVILLE     MOSUNNY   70  62  76 S6        30.09S
WASHINGTON +   SUNNY     68  62  82 S6        30.06F

$$

INZ062-063-066-070>080-084-089>092-201500-
SOUTH CENTRAL AND SOUTHEAST INDIANA

CITY           SKY/WX    TMP DP  RH WIND       PRES   REMARKS
BLOOMINGTON    PTSUNNY   66  60  81 SW6       30.07F

$$



USA.gov is the U.S. government's official web portal to all federal, state and local government web resources and services.